Theta_e
298 296 296 296 296 295 294 294 296 296 296 294 293 293 294 294 294 294 294 294 293 292
295 294 294 294 295 293 293 292 293 295 295 295 293 292 292 293 292 292 293 292 292 291
292 293 293 292 291 292 291 291 292 294 294 294 292 290 291 291 292 291 291 291 290 289
290 291 291 290 291 291 291 291 291 292 293 293 291 289 289 289 290 289 289 287 288 287
289 289 289 289 290 290 289 290 290 291 291 292 291 289 289 288 288 287 286 286 286 284
288 288 288 289 289 289 289 289 289 289 290 290 290 288 288 288 287 287 285 284 284 283
287 287 288 288 288 288 288 287 287 288 289 289 288 287 286 286 286 285 284 283 283 282
287 287 287 287 287 287 287 287 286 286 286 286 286 285 285 285 285 283 282 282 282 282
286 286 286 286 286 286 286 285 285 285 284 285 285 286 286 285 283 283 282 281 281 281
285 285 285 285 285 284 284 284 284 283 284 284 285 286 285 284 283 282 282 281 281 281
284 283 284 283 283 283 283 283 282 282 284 285 285 286 284 283 282 282 281 280 279 278
283 282 282 281 281 281 282 282 281 282 283 284 285 284 283 281 279 277 277 277 277 276
281 281 280 280 279 280 281 280 282 283 285 284 283 283 281 279 278 276 276 276 277 277
278 278 279 279 279 279 280 281 282 283 283 282 281 281 280 280 278 276 276 276 276 275
Wind_Speed
14 9 10 12 9 9 10 11 13 14 13 12 11 8 9 9 9 10 10 10 8 6
12 12 11 11 10 8 9 9 12 13 13 13 12 10 9 8 10 9 9 8 8 5
11 12 10 9 10 10 9 10 11 13 13 12 11 9 9 7 9 10 8 7 8 6
9 10 9 9 10 10 9 10 11 12 12 12 12 10 9 8 10 10 8 7 8 7
8 9 9 9 9 9 10 9 10 10 11 12 12 11 11 11 10 11 9 8 8 8
8 9 9 9 9 8 8 8 9 9 11 11 11 11 9 10 10 10 8 8 9 10
8 8 8 7 8 8 8 8 7 6 7 7 9 9 9 9 10 9 8 7 8 8
6 6 7 7 7 7 7 7 7 7 6 7 8 7 9 9 10 11 11 9 8 7
6 7 7 7 7 7 7 7 8 8 9 8 5 16 17 12 10 10 11 11 11 12
6 7 7 7 8 7 8 8 8 8 8 8 8 18 19 19 10 11 11 12 12 10
6 7 7 7 7 7 7 7 7 8 8 8 8 19 20 21 13 12 12 12 12 13
5 7 7 7 7 7 8 8 8 8 8 10 11 22 22 18 13 13 13 11 11 11
4 6 7 7 8 7 7 8 8 9 9 14 14 18 20 18 11 14 11 11 12 16
6 7 8 8 8 9 10 10 11 13 11 13 13 13 19 22 12 11 11 10 10 9
Wind_Direction
203 200 202 192 185 188 192 197 193 195 195 196 186 187 194 193 197 202 213 213 207 201
197 201 197 190 192 188 192 190 192 193 194 193 191 179 186 197 193 199 205 205 201 200
196 200 196 187 189 189 186 181 188 191 194 189 187 171 179 192 195 194 191 186 182 191
194 195 189 189 193 190 182 183 187 190 190 188 183 170 171 177 184 192 182 175 179 174
186 186 189 195 191 181 182 183 184 184 187 188 185 175 175 178 182 180 168 173 165 160
182 187 193 192 185 181 176 177 175 179 185 185 182 177 176 177 167 167 153 158 172 160
185 183 185 178 177 172 177 166 157 164 162 164 160 160 151 152 152 152 148 153 156 149
168 169 161 162 166 166 173 171 158 139 131 139 144 147 143 140 140 142 140 128 118 114
155 158 155 151 153 155 159 156 156 155 148 147 143 156 151 141 135 128 129 123 113 114
147 140 140 140 144 149 153 150 152 149 147 143 147 154 146 133 122 123 122 121 121 115
130 127 130 131 133 129 136 135 137 137 135 133 140 144 133 121 113 110 112 117 120 117
115 121 124 121 118 113 121 123 124 133 132 128 130 135 133 116 112 109 109 106 105 106
74 111 109 115 111 103 115 118 124 122 124 121 121 134 133 118 118 115 113 108 107 109
66 92 106 104 109 118 118 120 118 116 104 104 110 129 133 127 122 123 122 122 119 113